EW4769 Weather Reports


time (UTC)temp
C
wind
direction
speed
KPH
gust
KPH
rain 1hr
cm
rain 24hr
cm
rain mn
cm
humidity
%
barometer
mb
20260506193455 20 98 0.0 6.4 0.00 0.00 0.00 70 1018.7
20260506192956 20 115 0.0 8.0 0.00 0.00 0.00 68 1018.8
20260506192500 20 57 0.0 9.7 0.00 0.00 0.00 69 1018.9
20260506192455 20 54 0.0 8.0 0.00 0.00 0.00 68 1018.8
20260506191453 20 273 0.0 9.7 0.00 0.00 0.00 69 1018.9
20260506190953 18 90 0.0 8.0 0.00 0.00 0.00 74 1019.1
20260506190457 18 199 0.0 3.2 0.00 0.00 0.00 74 1019.1
20260506190453 18 90 0.0 3.2 0.00 0.00 0.00 74 1019.1
20260506185453 18 200 0.0 3.2 0.00 0.00 0.00 74 1019.1
20260506184951 18 200 0.0 4.8 0.00 0.00 0.00 76 1019.1
20260506184451 18 263 0.0 4.8 0.00 0.00 0.00 73 1019.1
20260506183951 18 248 0.0 3.2 0.00 0.00 0.00 73 1019.2
20260506183451 18 78 0.0 3.2 0.00 0.00 0.00 76 1019.2
20260506182951 17 115 0.0 3.2 0.00 0.00 0.00 74 1019.2
20260506182456 17 185 0.0 3.2 0.00 0.00 0.00 75 1019.2
20260506181951 17 205 0.0 3.2 0.00 0.00 0.00 76 1019.3
20260506181452 17 205 0.0 1.6 0.00 0.00 0.00 77 1019.3
20260506180951 17 205 0.0 1.6 0.00 0.00 0.00 77 1019.3
20260506180451 17 205 0.0 3.2 0.00 0.00 0.00 78 1019.2
20260506175951 17 205 0.0 6.4 0.00 0.00 0.00 79 1019.2
20260506175452 17 281 0.0 6.4 0.00 0.00 0.00 79 1019.2
20260506174952 16 277 0.0 1.6 0.00 0.00 0.00 79 1019.2
20260506174451 16 259 0.0 0.0 0.00 0.00 0.00 81 1019.2
20260506173951 16 227 0.0 0.0 0.00 0.00 0.00 80 1019.3
20260506173451 16 256 0.0 3.2 0.00 0.00 0.00 79 1019.3
20260506172951 16 268 0.0 6.4 0.00 0.00 0.00 81 1019.2
20260506172455 15 265 0.0 4.8 0.00 0.00 0.00 80 1019.3
20260506172451 16 270 1.6 6.4 0.00 0.00 0.00 82 1019.3
20260506171451 16 265 0.0 6.4 0.00 0.00 0.00 81 1019.3
20260506170951 16 246 0.0 6.4 0.00 0.00 0.00 80 1019.3
20260506170451 16 207 0.0 3.2 0.00 0.00 0.00 82 1019.3
20260506165951 16 254 0.0 0.0 0.00 0.00 0.00 81 1019.3
20260506165455 15 254 0.0 0.0 0.00 0.00 0.00 82 1019.2
20260506165451 16 270 0.0 0.0 0.00 0.00 0.00 81 1019.2
20260506164450 15 256 0.0 0.0 0.00 0.00 0.00 82 1019.2
20260506163951 15 275 0.0 0.0 0.00 0.00 0.00 82 1019.3
20260506163451 15 277 0.0 0.0 0.00 0.00 0.00 82 1019.3
20260506162956 15 278 0.0 0.0 0.00 0.00 0.00 82 1019.3
20260506162451 15 263 0.0 0.0 0.00 0.00 0.00 82 1019.4
20260506161951 15 254 0.0 0.0 0.00 0.00 0.00 81 1019.3
20260506161451 15 240 0.0 0.0 0.00 0.00 0.00 82 1019.4
20260506160951 15 233 0.0 0.0 0.00 0.00 0.00 83 1019.4
20260506160455 15 271 0.0 6.4 0.00 0.00 0.00 83 1019.5
20260506160451 15 221 0.0 0.0 0.00 0.00 0.00 82 1019.4
20260506155949 15 233 0.0 6.4 0.00 0.00 0.00 83 1019.5
20260506154954 15 279 0.0 1.6 0.00 0.00 0.00 85 1019.5
20260506154950 15 209 0.0 1.6 0.00 0.00 0.00 83 1019.5
20260506154553 15 63 0.0 3.2 0.00 0.00 0.00 83 1019.5
20260506153949 15 53 0.0 3.2 0.00 0.00 0.00 83 1019.5
20260506152949 14 66 0.0 1.6 0.00 0.00 0.00 83 1019.6
20260506152447 14 70 1.6 8.0 0.00 0.00 0.00 84 1019.5
20260506151947 14 78 1.6 8.0 0.00 0.00 0.00 84 1019.5
20260506151444 14 94 1.6 8.0 0.00 0.00 0.00 84 1019.5
20260506150945 13 63 3.2 8.0 0.00 0.00 0.00 85 1019.5
20260506150445 13 74 3.2 8.0 0.00 0.00 0.00 86 1019.7
20260506145944 13 82 1.6 9.7 0.00 0.00 0.00 87 1019.7
20260506145445 13 71 0.0 9.7 0.00 0.00 0.00 88 1019.7
20260506144948 13 78 1.6 9.7 0.00 0.00 0.00 88 1019.7
20260506144443 13 61 1.6 9.7 0.00 0.00 0.00 89 1019.7
20260506143946 12 68 1.6 6.4 0.00 0.00 0.00 91 1019.7
20260506143942 12 68 1.6 6.4 0.00 0.00 0.00 90 1019.7
20260506142943 12 84 0.0 6.4 0.00 0.00 0.00 92 1019.7
20260506142443 12 17 0.0 1.6 0.00 0.00 0.00 94 1019.7
20260506141943 11 17 0.0 1.6 0.00 0.00 0.00 94 1019.7
20260506141443 11 15 0.0 0.0 0.00 0.00 0.00 95 1019.6
20260506140947 11 340 0.0 0.0 0.00 0.00 0.00 95 1019.4
20260506140943 11 340 0.0 0.0 0.00 0.00 0.00 95 1019.5
20260506135941 11 340 0.0 0.0 0.00 0.00 0.00 96 1019.3
20260506135440 11 340 0.0 0.0 0.00 0.00 0.00 96 1019.2
20260506134944 11 42 0.0 0.0 0.00 0.00 0.00 95 1019.1
20260506134940 10 42 0.0 0.0 0.00 0.00 0.00 95 1019.1
20260506133941 10 82 0.0 0.0 0.00 0.00 0.00 95 1018.9
20260506133445 10 82 0.0 0.0 0.00 0.00 0.00 96 1018.8
20260506133441 10 82 0.0 0.0 0.00 0.00 0.00 96 1018.9
20260506132441 10 82 0.0 0.0 0.00 0.00 0.00 96 1018.8
20260506131940 10 82 0.0 0.0 0.00 0.00 0.00 95 1019.1
20260506131440 10 82 0.0 0.0 0.00 0.00 0.00 96 1018.9
20260506130939 11 82 0.0 0.0 0.00 0.00 0.00 96 1018.8
20260506130443 11 82 0.0 0.0 0.00 0.00 0.00 95 1018.7
20260506130438 11 82 0.0 0.0 0.00 0.00 0.00 95 1018.7
20260506125439 11 82 0.0 0.0 0.00 0.00 0.00 96 1018.7
20260506124938 11 82 0.0 0.0 0.00 0.00 0.00 96 1018.7
20260506124438 11 82 0.0 0.0 0.00 0.00 0.00 96 1018.7
20260506123939 11 82 0.0 0.0 0.00 0.00 0.00 96 1018.6
20260506123438 11 82 0.0 0.0 0.00 0.00 0.00 96 1018.5
20260506122938 11 82 0.0 0.0 0.00 0.00 0.00 96 1018.6
20260506122439 11 82 0.0 0.0 0.00 0.00 0.00 96 1018.6
20260506121938 11 82 0.0 0.0 0.00 0.00 0.00 96 1018.6
20260506121436 11 82 0.0 0.0 0.00 0.00 0.00 97 1018.5
20260506120940 11 82 0.0 0.0 0.00 0.00 0.00 97 1018.5
20260506120936 11 82 0.0 0.0 0.00 0.00 0.00 97 1018.5
20260506115936 11 82 0.0 0.0 0.00 0.00 0.00 97 1018.4
20260506115436 11 82 0.0 0.0 0.00 0.00 0.00 97 1018.4
20260506114935 11 82 0.0 0.0 0.00 0.00 0.00 97 1018.3
20260506114435 11 82 0.0 0.0 0.00 0.00 0.00 97 1018.3
20260506113934 11 82 0.0 0.0 0.00 0.00 0.00 97 1018.4
20260506113434 11 82 0.0 0.0 0.00 0.00 0.00 97 1018.4
20260506112934 11 82 0.0 0.0 0.00 0.00 0.00 97 1018.3
20260506112433 11 82 0.0 0.0 0.00 0.00 0.00 97 1018.3
20260506111933 11 82 0.0 0.0 0.00 0.00 0.00 97 1018.4
20260506111432 11 82 0.0 0.0 0.00 0.00 0.00 97 1018.4
20260506110932 11 82 0.0 0.0 0.00 0.00 0.00 97 1018.4
20260506110432 11 82 0.0 0.0 0.00 0.00 0.00 97 1018.3
20260506105930 11 82 0.0 0.0 0.00 0.00 0.00 97 1018.2
20260506105430 11 82 0.0 0.0 0.00 0.00 0.00 97 1018.2
20260506104931 11 82 0.0 0.0 0.00 0.00 0.00 97 1018.2
20260506104431 11 82 0.0 0.0 0.00 0.00 0.00 96 1018.2
20260506103935 11 82 0.0 0.0 0.00 0.00 0.00 96 1018.2
20260506103930 11 82 0.0 0.0 0.00 0.00 0.00 96 1018.1
20260506103535 11 82 0.0 0.0 0.00 0.00 0.00 96 1018.2
20260506102430 11 82 0.0 0.0 0.00 0.00 0.00 96 1018.2
20260506101930 11 82 0.0 0.0 0.00 0.00 0.00 96 1018.2
20260506101430 11 82 0.0 0.0 0.00 0.00 0.00 96 1018.3
20260506100935 11 82 0.0 0.0 0.00 0.00 0.00 96 1018.3
20260506100431 11 82 0.0 0.0 0.00 0.00 0.00 96 1018.3
20260506095934 11 82 0.0 0.0 0.00 0.00 0.00 96 1018.2
20260506095929 11 82 0.0 0.0 0.00 0.00 0.00 96 1018.2
20260506094930 11 82 0.0 0.0 0.00 0.00 0.00 96 1018.2
20260506094430 11 82 0.0 0.0 0.00 0.00 0.00 96 1018.2
20260506093930 10 82 0.0 0.0 0.00 0.00 0.00 97 1018.2
20260506093430 10 82 0.0 0.0 0.00 0.00 0.00 97 1018.3
20260506092930 10 82 0.0 0.0 0.00 0.00 0.00 97 1018.3
20260506092430 10 82 0.0 0.0 0.00 0.00 0.00 97 1018.4
20260506091930 10 82 0.0 0.0 0.00 0.00 0.00 97 1018.3
20260506091430 10 82 0.0 0.0 0.00 0.00 0.00 96 1018.3
20260506090930 10 82 0.0 0.0 0.00 0.00 0.00 96 1018.3
20260506090430 10 82 0.0 0.0 0.00 0.00 0.00 96 1018.2
20260506085930 10 82 0.0 0.0 0.00 0.00 0.00 96 1018.1
20260506085430 10 82 0.0 0.0 0.00 0.00 0.00 96 1018.1
20260506084930 10 82 0.0 0.0 0.00 0.00 0.00 95 1018.0
20260506084435 10 82 0.0 0.0 0.00 0.00 0.00 95 1018.1
20260506084430 10 82 0.0 0.0 0.00 0.00 0.00 95 1018.1
20260506083430 10 82 0.0 0.0 0.00 0.00 0.00 95 1018.1
20260506082930 10 82 0.0 0.0 0.00 0.00 0.00 95 1018.1
20260506082430 10 82 0.0 0.0 0.00 0.00 0.00 95 1018.1
20260506081930 10 82 0.0 0.0 0.00 0.00 0.00 94 1018.1
20260506081430 10 82 0.0 0.0 0.00 0.00 0.00 94 1018.1
20260506080930 10 82 0.0 0.0 0.00 0.00 0.00 94 1018.1
20260506080430 10 82 0.0 0.0 0.00 0.00 0.00 93 1018.1
20260506073430 11 82 0.0 0.0 0.00 0.00 0.00 91 1017.9
20260506072928 11 82 0.0 0.0 0.00 0.00 0.00 91 1017.8
20260506072427 11 82 0.0 0.0 0.00 0.00 0.00 91 1017.8
20260506071931 11 82 0.0 0.0 0.00 0.00 0.00 91 1017.7
20260506071925 11 82 0.0 0.0 0.00 0.00 0.00 91 1017.8
20260506071426 11 82 0.0 0.0 0.00 0.00 0.00 91 1017.8
20260506070924 11 82 0.0 0.0 0.00 0.00 0.00 91 1017.9
20260506062422 12 82 0.0 0.0 0.00 0.00 0.00 90 1017.5
20260506061922 12 82 0.0 0.0 0.00 0.00 0.00 90 1017.5
20260506061422 12 82 0.0 0.0 0.00 0.00 0.00 90 1017.6
20260506060923 12 82 0.0 0.0 0.00 0.00 0.00 90 1017.5
20260506060423 12 82 0.0 0.0 0.00 0.00 0.00 90 1017.5
20260506051416 12 82 0.0 0.0 0.00 0.00 0.00 88 1017.2
20260506050916 12 82 0.0 0.0 0.00 0.00 0.00 88 1017.2
20260506050416 12 82 0.0 0.0 0.00 0.00 0.00 89 1017.2
20260506044916 12 82 0.0 0.0 0.00 0.00 0.00 89 1017.1
20260506043917 12 82 0.0 0.0 0.00 0.00 0.00 88 1016.9
20260506043416 12 82 0.0 0.0 0.00 0.00 0.00 89 1016.9
20260506042916 12 82 0.0 0.0 0.00 0.00 0.00 89 1016.9
20260506042420 12 82 0.0 0.0 0.00 0.00 0.00 89 1016.9
20260506042416 12 82 0.0 0.0 0.00 0.00 0.00 89 1016.8
20260506041414 12 82 0.0 0.0 0.00 0.00 0.00 88 1016.8
20260506040914 12 82 0.0 0.0 0.00 0.00 0.00 88 1016.8
20260506040414 12 82 0.0 1.6 0.00 0.00 0.00 89 1016.7
20260506035914 12 82 0.0 1.6 0.00 0.00 0.00 88 1016.6
20260506035414 12 82 0.0 1.6 0.00 0.00 0.00 88 1016.6
20260506034914 12 82 0.0 6.4 0.00 0.00 0.00 88 1016.5
20260506034415 12 82 0.0 6.4 0.00 0.00 0.00 88 1016.5
20260506033914 12 205 0.0 0.0 0.00 0.00 0.00 89 1016.5
20260506033415 12 205 0.0 3.2 0.00 0.00 0.00 88 1016.4
20260506032919 12 205 0.0 3.2 0.00 0.00 0.00 88 1016.3
20260506032914 12 205 0.0 3.2 0.00 0.00 0.00 88 1016.3
20260506031914 12 205 0.0 4.8 0.00 0.00 0.00 88 1016.1
20260506031414 12 205 0.0 4.8 0.00 0.00 0.00 88 1016.2
20260506030914 12 242 0.0 0.0 0.00 0.00 0.00 89 1016.1
20260506030414 12 242 0.0 0.0 0.00 0.00 0.00 89 1016.0
20260506025914 12 242 0.0 0.0 0.00 0.00 0.00 89 1016.0
20260506025414 12 242 0.0 0.0 0.00 0.00 0.00 89 1015.9
20260506024915 13 242 0.0 0.0 0.00 0.00 0.00 88 1015.9
20260506024420 13 242 0.0 0.0 0.00 0.00 0.00 88 1015.6
20260506024414 13 242 0.0 0.0 0.00 0.00 0.00 88 1015.6
20260506023914 13 242 0.0 0.0 0.00 0.00 0.00 89 1015.7
20260506023414 13 242 0.0 0.0 0.00 0.00 0.00 88 1015.7
20260506022914 13 242 0.0 0.0 0.00 0.00 0.00 88 1015.6
20260506021914 13 242 0.0 0.0 0.00 0.00 0.00 88 1015.6
20260506021414 13 123 0.0 0.0 0.00 0.00 0.00 88 1015.6
20260506020915 13 123 0.0 0.0 0.00 0.00 0.00 88 1015.6
20260506020418 13 122 0.0 0.0 0.00 0.00 0.00 87 1015.7
20260506020414 13 122 0.0 0.0 0.00 0.00 0.00 88 1015.7
20260506015414 13 122 0.0 0.0 0.00 0.00 0.00 87 1015.7
20260506014914 13 122 0.0 0.0 0.00 0.00 0.00 88 1015.7
20260506014414 13 122 0.0 0.0 0.00 0.00 0.00 89 1015.6
20260506013914 13 122 0.0 0.0 0.00 0.00 0.00 89 1015.6
20260506013413 13 122 0.0 0.0 0.00 0.00 0.00 89 1015.6
20260506012913 13 122 0.0 0.0 0.00 0.00 0.00 88 1015.5
20260506012518 13 227 0.0 0.0 0.00 0.00 0.00 88 1015.5
20260506012417 13 227 0.0 0.0 0.00 0.00 0.00 88 1015.5
20260506012412 13 122 0.0 0.0 0.00 0.00 0.00 88 1015.5
20260506010912 13 227 0.0 0.0 0.00 0.00 0.00 88 1015.4
20260506010412 13 227 0.0 0.0 0.00 0.00 0.00 88 1015.4
20260506005912 13 227 0.0 0.0 0.00 0.00 0.00 88 1015.4
20260506005414 13 227 0.0 0.0 0.00 0.00 0.00 87 1015.3
20260506005410 13 227 0.0 0.0 0.00 0.00 0.00 88 1015.4
20260506004410 14 227 0.0 0.0 0.00 0.00 0.00 87 1015.3
20260506003913 14 227 0.0 0.0 0.00 0.00 0.00 86 1015.3
20260506003909 14 227 0.0 0.0 0.00 0.00 0.00 86 1015.3
20260506003515 14 227 0.0 0.0 0.00 0.00 0.00 85 1015.2
20260506002415 15 227 0.0 0.0 0.00 0.00 0.00 83 1015.1
20260506002410 14 227 0.0 0.0 0.00 0.00 0.00 85 1015.2
20260506001910 15 227 0.0 0.0 0.00 0.00 0.00 83 1015.2
20260506000909 15 227 0.0 0.0 0.00 0.00 0.00 82 1015.0
20260506000410 15 234 0.0 0.0 0.00 0.00 0.00 81 1015.0
20260505235911 15 221 0.0 0.0 0.00 0.00 0.00 79 1015.0
20260505235906 15 234 0.0 0.0 0.00 0.00 0.00 79 1015.0
20260505234910 15 98 0.0 0.0 0.00 0.00 0.00 80 1014.9
20260505234906 15 230 0.0 0.0 0.00 0.00 0.00 79 1014.9
20260505233910 15 232 0.0 3.2 0.00 0.00 0.00 79 1014.9
20260505233906 15 82 0.0 0.0 0.00 0.00 0.00 80 1015.0
20260505233510 15 227 1.6 8.0 0.00 0.00 0.00 79 1014.9
20260505232408 15 317 1.6 6.4 0.00 0.00 0.00 83 1015.0
20260505232404 15 227 1.6 8.0 0.00 0.00 0.00 80 1014.9
20260505231403 14 268 1.6 4.8 0.00 0.00 0.00 82 1015.0
20260505230903 14 267 1.6 9.7 0.00 0.00 0.00 82 1015.1
20260505230404 14 267 1.6 9.7 0.00 0.00 0.00 83 1015.1
20260505225904 14 253 1.6 6.4 0.00 0.00 0.00 82 1015.1
20260505225403 14 200 0.0 3.2 0.00 0.00 0.00 82 1015.1
20260505224908 14 112 0.0 1.6 0.00 0.00 0.00 84 1015.2
20260505224904 14 114 0.0 0.0 0.00 0.00 0.00 83 1015.1
20260505223908 14 112 0.0 3.2 0.00 0.00 0.00 83 1015.3
20260505223904 14 112 0.0 3.2 0.00 0.00 0.00 83 1015.3
20260505222903 14 112 0.0 1.6 0.00 0.00 0.00 85 1015.3
20260505222403 14 112 0.0 1.6 0.00 0.00 0.00 85 1015.3
20260505221904 14 112 0.0 1.6 0.00 0.00 0.00 85 1015.4
20260505221402 13 112 0.0 1.6 0.00 0.00 0.00 85 1015.4
20260505220902 13 112 0.0 3.2 0.00 0.00 0.00 84 1015.4
20260505220401 13 112 0.0 3.2 0.00 0.00 0.00 84 1015.5
20260505215902 13 112 0.0 4.8 0.00 0.00 0.00 84 1015.5
20260505215402 13 112 1.6 4.8 0.00 0.00 0.00 84 1015.5
20260505214901 13 113 0.0 4.8 0.00 0.00 0.00 84 1015.5
20260505214401 14 115 0.0 4.8 0.00 0.00 0.00 84 1015.5
20260505213902 14 116 0.0 4.8 0.00 0.00 0.00 84 1015.5
20260505213408 14 198 0.0 3.2 0.00 0.00 0.00 83 1015.6
20260505213403 14 121 0.0 1.6 0.00 0.00 0.00 84 1015.6
20260505213006 14 198 1.6 6.4 0.00 0.00 0.00 84 1015.6
20260505212504 14 198 3.2 6.4 0.00 0.00 0.00 83 1015.7
20260505211400 14 236 1.6 4.8 0.00 0.00 0.00 83 1015.6
20260505210859 14 223 0.0 4.8 0.00 0.00 0.00 84 1015.6
20260505210359 13 109 0.0 3.2 0.00 0.00 0.00 83 1015.6
20260505205859 13 242 0.0 4.8 0.00 0.00 0.00 84 1015.5
20260505205403 13 71 1.6 9.7 0.00 0.00 0.00 84 1015.6
20260505205359 13 242 0.0 4.8 0.00 0.00 0.00 83 1015.5
20260505204359 13 255 1.6 9.7 0.00 0.00 0.00 84 1015.6
20260505203900 13 175 0.0 0.0 0.00 0.00 0.00 84 1015.7
20260505203358 13 243 0.0 0.0 0.00 0.00 0.00 84 1015.6
20260505202902 13 301 1.6 6.4 0.00 0.00 0.00 84 1015.7
20260505202858 13 280 1.6 6.4 0.00 0.00 0.00 84 1015.6
20260505201858 13 252 0.0 4.8 0.00 0.00 0.00 83 1015.6
20260505201357 13 253 0.0 0.0 0.00 0.00 0.00 82 1015.7
20260505200904 13 242 0.0 0.0 0.00 0.00 0.00 83 1015.9
20260505200900 13 244 0.0 0.0 0.00 0.00 0.00 83 1015.7
20260505195902 13 200 0.0 4.8 0.00 0.00 0.00 82 1015.9
20260505195857 13 240 0.0 4.8 0.00 0.00 0.00 82 1015.9
20260505194857 13 244 0.0 0.0 0.00 0.00 0.00 83 1015.9
20260505194358 13 243 0.0 0.0 0.00 0.00 0.00 82 1015.9
20260505193858 13 78 1.6 3.2 0.00 0.00 0.00 84 1016.0